This demonstration page uses our WeatherBlox Daily Observations layout. Learn more.

Left ArrowRight Arrow

Hourly Observations for September 20, 2019

Temp ( °F °C ) Dew Point ( °F °C ) Humidity (%) Winds ( mph kmh ) Pressure ( in mb ) Visibility ( mi km ) Precip ( " mm )
12:53 am 00:53 Clear 73 22.8 65 18.3 76 76 SSE 6 9 29.90 1013 10 16 0.00 0.00
1:53 am 01:53 Clear 73 22.8 66 18.9 79 79 SSE 8 13 29.91 1013 10 16 0.00 0.00
2:53 am 02:53 Clear 72 22.2 66 18.9 82 82 SSE 10 17 29.90 1013 10 16 0.00 0.00
3:53 am 03:53 Clear 72 22.2 66 18.9 82 82 SSE 9 15 29.89 1012 10 16 0.00 0.00
4:53 am 04:53 Clear 71 21.7 66 18.9 84 84 SSE 9 15 29.89 1012 10 16 0.00 0.00
5:53 am 05:53 Clear 70 21.1 66 18.9 87 87 SSE 8 13 29.89 1012 10 16 0.00 0.00
6:53 am 06:53 Clear 70 21.1 66 18.9 87 87 SSE 6 9 29.91 1013 10 16 0.00 0.00
7:53 am 07:53 Sunny 70 21.1 66 18.9 87 87 SSE 6 9 29.92 1013 10 16 0.00 0.00
8:53 am 08:53 Sunny 71 21.7 67 19.4 87 87 SE 9 15 29.92 1013 10 16 0.00 0.00
9:53 am 09:53 Sunny 74 23.3 67 19.4 79 79 S 13 20 29.92 1013 10 16 0.00 0.00
10:53 am 10:53 Sunny 77 25 68 20 74 74 SSE 14 22 29.92 1013 10 16 0.00 0.00
11:53 am 11:53 Partly Cloudy 79 26.1 66 18.9 65 65 SSE 15 24 29.89 1012 10 16 0.00 0.00
12:13 pm 12:13 Mostly Cloudy 82 27.8 67 19.4 60 60 S 16 26 29.82 1010 10 16 0.00 0.00
12:23 pm 12:23 Partly Cloudy 82 27.8 66 18.9 58 58 SSE 14 22 29.82 1010 10 16 0.00 0.00
12:53 pm 12:53 Partly Cloudy 82 27.8 65 18.3 56 56 SSE 15 24 29.87 1012 10 16 0.00 0.00
1:53 pm 13:53 Mostly Cloudy 83 28.3 64 17.8 53 53 S 16 26 29.86 1011 10 16 0.00 0.00
2:53 pm 14:53 Partly Cloudy 84 28.9 63 17.2 49 49 SSE 14 22 29.83 1010 10 16 0.00 0.00
3:53 pm 15:53 Mostly Cloudy 82 27.8 62 16.7 51 51 SSE 15 24 29.82 1010 10 16 0.00 0.00
4:53 pm 16:53 Partly Cloudy 82 27.8 64 17.8 55 55 SSE 18 30 29.80 1009 10 16 0.00 0.00
5:53 pm 17:53 Sunny 80 26.7 64 17.8 58 58 SE 18 30 29.79 1009 10 16 0.00 0.00
6:53 pm 18:53 Mostly Sunny 77 25 66 18.9 69 69 SSE 17 28 29.80 1009 10 16 0.00 0.00
7:12 pm 19:12 Mostly Cloudy 75 24 66 19 74 74 SSE 21 33 29.76 1008 10 16 0.00 0.00
7:53 pm 19:53 Cloudy 74 23.3 66 18.9 76 76 SSE 13 20 29.81 1010 10 16 0.00 0.00
8:24 pm 20:24 Partly Cloudy 73 23 66 19 78 78 SSE 15 24 29.78 1008 10 16 0.00 0.00
8:53 pm 20:53 Clear 72 22.2 66 18.9 82 82 SSE 14 22 29.81 1010 10 16 0.00 0.00
9:53 pm 21:53 Mostly Clear 71 21.7 67 19.4 87 87 SSE 15 24 29.80 1009 10 16 0.00 0.00
10:26 pm 22:26 Mostly Cloudy 72 22 66 19 83 83 SSE 16 26 29.77 1008 10 16 0.00 0.00
10:53 pm 22:53 Mostly Cloudy 71 21.7 67 19.4 87 87 SSE 15 24 29.80 1009 10 16 0.00 0.00
11:03 pm 23:03 Partly Cloudy 72 22 66 19 83 83 SSE 14 22 29.77 1008 10 16 0.00 0.00
11:18 pm 23:18 Mostly Cloudy 71 21.7 67 19.4 87 87 SSE 14 22 29.77 1008 10 16 0.00 0.00
11:53 pm 23:53 Mostly Cloudy 71 21.7 67 19.4 87 87 S 14 22 29.79 1009 10 16 0.00 0.00

Powered by AerisWeather